Showing default

IRIDE-MS1-EAG2-14, 68447

Orbit data source: Space-Track

IRIDE-MS1-EAG2-14, 68447 is an Italian payload satellite in SSO that was launched on Mon, 30 Mar 2026 UTC via an FALCON 9 launch vehicle from the Air Force Western Test Range (AFWTR). Payload-class satellites include a variety of spacecraft equipped with specific instruments for various scientific and technological missions. These include communications satellites like Starlink; space stations such as the ISS; scientific satellites like the Hubble; Earth observation satellites from companies like Planet Labs, Umbra, and HawkEye 360; GPS; miniature CubeSats for education and research; and military/defense satellites.

Loading next visibility...
Identifier
68447, 2026-067AH
Orbit
SSO
Country
Flag of ITIT
Related business
Manufacturer
OHB-I
Mission
Operational spacecraft
Bus & Motor
EAGLET, Unknown motor
Mass
25 kg wet, 25 kg dry
Launch date (UTC)
2026-03-30 (3 months ago)
Launch vehicle
FALCON 9
Launch site
Air Force Western Test Range (AFWTR)
Object type
Payload
Rocket body
Debris
Shape & HBR
Unknown shape, 1.2 m
Radar Cross Section
Medium (>0.1 m² and <1 m²)

Expand to show TLE details & history
Last TLE update: 2 days ago

TLE from 2 days ago
0 IRIDE-MS1-EAG2-14
1 68447U 26067AH  26171.34959185  .00005484  00000-0  26534-3 0  9995
2 68447  97.4520 129.7923 0002533  61.2276 298.9213 15.18996238 12423
Epoch: 2026-06-20T08:23Z
TLE epoch observation values (Epoch: 2026-06-20T08:23:24.735Z)
Latitude
-0.00001°
Longitude
95.37375°
Altitude
511.117 km
Speed
7.609 km/s
True Right ascension
08h 39m 10s
True Declination
0° 00' 00"
Sunlit
Object was in daylight at epoch
Visualization orbit readout
Latitude
Unknown
Longitude
Unknown
Altitude
Unknown
Speed
Unknown
Apparent Right ascension
Unknown
Apparent Declination
Unknown
Sunlit
N/A
Visualization observer readout
Local Sidereal Time
16:33:23
Azimuth
Unknown
Elevation
Unknown
Doppler factor
Unknown
Orbital elements
Apogee altitude
507.586 km
Perigee altitude
504.098 km
Semi-major axis
6,883.979 km
Eccentricity
0.00025
Inclination
97.452°
RAAN
129.7923°
Arg. of periapsis
61.2276°
True anomaly
298.89589°
Mean anomaly
298.9213°
Eccentric anomaly
298.9086°
Mean motion
3.8 °/min
Orbital period
94.74 mins
BSTAR
0.00026534
Loading maneuver chart data...
Computing Atmospheric mass density...
Loading historical data...
Loading historical data...
Loading historical data...
Loading historical data...
Loading historical data...
Loading historical data...
Loading historical data...

Documentation

Showing up to 5 results
|